Estación de Azapa medio

Ultimos registro cada 15 minutos 81
Estación Fecha / Hora Temperatura Humedad Lluvia Velocidad Dirección Radiación Presion
81 Azapa medio 03-05-2026 20:00 15,2 74,7 0 0 0 0 970
80 Azapa medio 03-05-2026 19:45 15,7 74,1 0 0 0 0 970
79 Azapa medio 03-05-2026 19:30 16,3 72,2 0 0 40 0 970
78 Azapa medio 03-05-2026 19:15 16,8 71,1 0 0 44 0 969
77 Azapa medio 03-05-2026 19:00 17,4 69,2 0 0 40 0 969
76 Azapa medio 03-05-2026 18:45 18,2 67,2 0 0 37 0 969
75 Azapa medio 03-05-2026 18:30 19,1 63,5 0 0 0 2 969
74 Azapa medio 03-05-2026 18:15 20 62,1 0 0,2 62 13 969
73 Azapa medio 03-05-2026 18:00 20,9 59 0 0,9 58 44 969
72 Azapa medio 03-05-2026 17:45 21,6 56,4 0 1 74 76 969
71 Azapa medio 03-05-2026 17:30 22,2 54,6 0 1,3 85 109 969
70 Azapa medio 03-05-2026 17:15 22,8 52,2 0 1,1 94 143 969
69 Azapa medio 03-05-2026 17:00 23,2 51,9 0 1,7 93 178 969
68 Azapa medio 03-05-2026 16:45 24 49,6 0 0,5 93 214 969
67 Azapa medio 03-05-2026 16:30 24,3 48,2 0 0,5 85 249 969
66 Azapa medio 03-05-2026 16:15 24,6 48 0 1,1 82 284 969
65 Azapa medio 03-05-2026 16:00 24,9 46,2 0 0,8 84 318 969
64 Azapa medio 03-05-2026 15:45 24,6 46,4 0 0,8 85 349 969
63 Azapa medio 03-05-2026 15:30 24,4 48,5 0 1,3 81 381 969
62 Azapa medio 03-05-2026 15:15 24,4 48,3 0 1,2 79 410 969
61 Azapa medio 03-05-2026 15:00 24,4 47,8 0 1,2 77 437 969
60 Azapa medio 03-05-2026 14:45 24,4 48,6 0 1,1 76 460 969
59 Azapa medio 03-05-2026 14:30 24,1 49,2 0 1,2 53 479 970
58 Azapa medio 03-05-2026 14:15 24 48 0 1,4 53 498 970
57 Azapa medio 03-05-2026 14:00 23,8 49,4 0 1,4 52 513 970
56 Azapa medio 03-05-2026 13:45 23,9 50,2 0 1,8 58 527 970
55 Azapa medio 03-05-2026 13:30 23,7 49,6 0 1,6 52 538 970
54 Azapa medio 03-05-2026 13:15 23,2 51 0 1,2 58 545 970
53 Azapa medio 03-05-2026 13:00 22,9 50,8 0 1,7 54 547 970
52 Azapa medio 03-05-2026 12:45 23 50,5 0 1,4 58 547 970
51 Azapa medio 03-05-2026 12:30 22,5 53,6 0 1,3 45 544 971
50 Azapa medio 03-05-2026 12:15 22,2 54,7 0 1 52 527 971
49 Azapa medio 03-05-2026 12:00 21,6 55,4 0 0,9 66 468 971
48 Azapa medio 03-05-2026 11:45 20,8 58 0 0,8 66 506 972
47 Azapa medio 03-05-2026 11:30 20 61,9 0 1 56 294 972
46 Azapa medio 03-05-2026 11:15 19,5 61,7 0 1 48 420 972
45 Azapa medio 03-05-2026 11:00 19,1 64,2 0 0,9 45 250 972
44 Azapa medio 03-05-2026 10:45 18,7 65,3 0 0,3 41 168 972
43 Azapa medio 03-05-2026 10:30 18,3 67,6 0 0,2 41 131 972
42 Azapa medio 03-05-2026 10:15 18 68 0 0,1 51 106 972
41 Azapa medio 03-05-2026 10:00 17,6 68,8 0 0,2 58 93 972
40 Azapa medio 03-05-2026 09:45 17,5 69,4 0 0,5 54 89 971
39 Azapa medio 03-05-2026 09:30 17,2 69,3 0 0,3 50 77 971
38 Azapa medio 03-05-2026 09:15 17 69,6 0 0,2 46 63 971
37 Azapa medio 03-05-2026 09:00 16,9 70,5 0 0,3 46 55 971
36 Azapa medio 03-05-2026 08:45 16,7 71,1 0 0 47 46 971
35 Azapa medio 03-05-2026 08:30 16,5 71,6 0 0,1 54 41 971
34 Azapa medio 03-05-2026 08:15 16,4 72,4 0 0,2 62 35 971
33 Azapa medio 03-05-2026 08:00 16,3 72,7 0 0 51 27 971
32 Azapa medio 03-05-2026 07:45 16,2 73 0 0 37 17 971
31 Azapa medio 03-05-2026 07:30 16 73,3 0 0,1 32 8 970
30 Azapa medio 03-05-2026 07:15 16 73,2 0 0,1 27 2 971
29 Azapa medio 03-05-2026 07:00 15,9 73 0 0,1 31 0 971
28 Azapa medio 03-05-2026 06:45 16 73 0 0,1 32 0 971
27 Azapa medio 03-05-2026 06:30 16 72,9 0 0 27 0 971
26 Azapa medio 03-05-2026 06:15 16 73,1 0 0 28 0 971
25 Azapa medio 03-05-2026 06:00 16 73,1 0 0 27 0 971
24 Azapa medio 03-05-2026 05:45 16,2 74,4 0 0 26 0 971
23 Azapa medio 03-05-2026 05:30 16,2 74,8 0 0 0 0 971
22 Azapa medio 03-05-2026 05:15 16,2 74,5 0 0 0 0 971
21 Azapa medio 03-05-2026 05:00 16,3 74,4 0 0 0 0 971
20 Azapa medio 03-05-2026 04:45 16,3 74,4 0 0 0 0 971
19 Azapa medio 03-05-2026 04:30 16,3 74,6 0 0,1 28 0 971
18 Azapa medio 03-05-2026 04:15 16,3 74,3 0 0,4 27 0 970
17 Azapa medio 03-05-2026 04:00 16,4 74,2 0 0,2 25 0 971
16 Azapa medio 03-05-2026 03:45 16,4 74,1 0 0,2 25 0 971
15 Azapa medio 03-05-2026 03:30 16,5 74 0 0,2 29 0 971
14 Azapa medio 03-05-2026 03:15 16,5 73,8 0 0 0 0 971
13 Azapa medio 03-05-2026 03:00 16,5 73,9 0 0,1 28 0 971
12 Azapa medio 03-05-2026 02:45 16,5 73,6 0 0 28 0 971
11 Azapa medio 03-05-2026 02:30 16,5 73,5 0 0 26 0 971
10 Azapa medio 03-05-2026 02:15 16,5 73,6 0 0,1 27 0 971
9 Azapa medio 03-05-2026 02:00 16,6 73,7 0 0,1 24 0 971
8 Azapa medio 03-05-2026 01:45 16,6 73,8 0 0,1 23 0 972
7 Azapa medio 03-05-2026 01:30 16,6 74,5 0 0,1 22 0 972
6 Azapa medio 03-05-2026 01:15 16,6 74,6 0 0 0 0 972
5 Azapa medio 03-05-2026 01:00 16,6 74,6 0 0,2 24 0 972
4 Azapa medio 03-05-2026 00:45 16,6 74,6 0 0,3 22 0 972
3 Azapa medio 03-05-2026 00:30 16,6 74,5 0 0,1 23 0 972
2 Azapa medio 03-05-2026 00:15 16,6 74,6 0 0,2 22 0 972
1 Azapa medio 03-05-2026 00:00 16,6 75,2 0 0,4 21 0 972